When you browse on this site, cookies collect data to enhance your experience and personalize the content and advertising you see.
Visit our Privacy Policy to learn more. By continuing to use the site, you agree to this use of cookies and data.
  • In Deutschland
  • Länderverzeichnis
  • Für 7 Tage
  • Wassertemperatur
  • Satellitenkarten
  • Wetterkarte
  • Widgets
  • user-avatar
    Anmelden

    Stündliche Wetter Erkrath

    Heute, 18 November, Sonntag

    Zeit Temperatur Niederschläge Wind Luftdruck Luftfeuchtigkeit
    00:00 +3°C° 0 mm 3 m/S 766 mmHg 62%
    01:00 +2°C° 0 mm 3 m/S 766 mmHg 61%
    02:00 +2°C° 0 mm 3 m/S 766 mmHg 61%
    03:00 +2°C° 0 mm 3 m/S 766 mmHg 60%
    04:00 +1°C° 0 mm 3 m/S 766 mmHg 58%
    05:00 +1°C° 0 mm 3 m/S 766 mmHg 57%
    06:00 +1°C° 0 mm 3 m/S 766 mmHg 55%
    07:00 +2°C° 0 mm 3 m/S 766 mmHg 52%
    08:00 +2°C° 0 mm 3 m/S 766 mmHg 49%
    09:00 +3°C° 0 mm 3 m/S 766 mmHg 45%
    10:00 +4°C° 0 mm 3 m/S 765 mmHg 43%
    11:00 +5°C° 0 mm 4 m/S 765 mmHg 41%
    12:00 +6°C° 0 mm 4 m/S 765 mmHg 38%
    13:00 +6°C° 0 mm 4 m/S 764 mmHg 39%
    14:00 +6°C° 0 mm 4 m/S 764 mmHg 40%
    15:00 +5°C° 0 mm 3 m/S 763 mmHg 41%
    16:00 +4°C° 0 mm 4 m/S 763 mmHg 42%
    17:00 +3°C° 0 mm 4 m/S 763 mmHg 43%
    18:00 +3°C° 0 mm 4 m/S 763 mmHg 44%
    19:00 +1°C° 0 mm 4 m/S 763 mmHg 52%
    20:00 +1°C° 0 mm 4 m/S 763 mmHg 60%
    21:00 +1°C° 0 mm 4 m/S 763 mmHg 68%
    22:00 +1°C° 0 mm 4 m/S 762 mmHg 73%
    23:00 +1°C° 0 mm 4 m/S 762 mmHg 78%

    Morgen, 19 November, Montag

    Zeit Temperatur Niederschläge Wind Luftdruck Luftfeuchtigkeit
    00:00 +1°C° 0 mm 4 m/S 762 mmHg 84%
    01:00 +1°C° 0 mm 4 m/S 761 mmHg 85%
    02:00 +1°C° 0 mm 4 m/S 761 mmHg 86%
    03:00 +1°C° 0 mm 4 m/S 761 mmHg 86%
    04:00 +3°C° 0 mm 4 m/S 760 mmHg 84%
    05:00 +3°C° 0 mm 4 m/S 760 mmHg 81%
    06:00 +2°C° 0 mm 5 m/S 760 mmHg 78%
    07:00 +2°C° 0 mm 5 m/S 760 mmHg 75%
    08:00 +2°C° 0 mm 5 m/S 760 mmHg 72%
    09:00 +3°C° 0 mm 6 m/S 759 mmHg 69%
    10:00 +3°C° 0 mm 6 m/S 759 mmHg 65%
    11:00 +4°C° 0 mm 6 m/S 758 mmHg 60%
    12:00 +5°C° 0 mm 6 m/S 758 mmHg 55%
    13:00 +5°C° 0 mm 6 m/S 757 mmHg 58%
    14:00 +5°C° 0 mm 5 m/S 757 mmHg 62%
    15:00 +5°C° 0 mm 5 m/S 756 mmHg 65%
    16:00 +5°C° 0.1 mm 5 m/S 756 mmHg 67%
    17:00 +3°C° 0.1 mm 5 m/S 756 mmHg 69%
    18:00 +2°C° 0.1 mm 5 m/S 756 mmHg 71%
    19:00 +2°C° 0 mm 5 m/S 756 mmHg 71%
    20:00 +2°C° 0 mm 5 m/S 756 mmHg 70%
    21:00 +1°C° 0 mm 5 m/S 756 mmHg 69%
    22:00 +1°C° 0 mm 5 m/S 755 mmHg 70%
    23:00 +1°C° 0 mm 5 m/S 755 mmHg 70%

    übermorgen, 20 November, Dienstag

    Zeit Temperatur Niederschläge Wind Luftdruck Luftfeuchtigkeit
    00:00 0°C° 0 mm 5 m/S 755 mmHg 71%
    01:00 0°C° 0 mm 5 m/S 754 mmHg 71%
    02:00 0°C° 0 mm 5 m/S 754 mmHg 70%
    03:00 0°C° 0 mm 5 m/S 753 mmHg 69%
    04:00 -1°C° 0 mm 6 m/S 753 mmHg 70%
    05:00 -1°C° 0 mm 6 m/S 752 mmHg 70%
    06:00 -1°C° 0 mm 6 m/S 752 mmHg 70%
    07:00 -1°C° 0 mm 6 m/S 752 mmHg 68%
    08:00 +1°C° 0 mm 6 m/S 752 mmHg 67%
    09:00 +1°C° 0 mm 6 m/S 752 mmHg 65%
    10:00 +1°C° 0 mm 6 m/S 751 mmHg 63%
    11:00 +1°C° 0 mm 6 m/S 751 mmHg 62%
    12:00 +2°C° 0 mm 6 m/S 750 mmHg 60%
    13:00 +2°C° 0 mm 6 m/S 750 mmHg 62%
    14:00 +2°C° 0 mm 6 m/S 749 mmHg 63%
    15:00 +2°C° 0 mm 5 m/S 749 mmHg 64%
    16:00 +1°C° 0.2 mm 5 m/S 749 mmHg 67%
    17:00 +1°C° 0.2 mm 5 m/S 749 mmHg 71%
    18:00 +1°C° 0.2 mm 5 m/S 749 mmHg 75%
    19:00 +1°C° 0.3 mm 5 m/S 749 mmHg 76%
    20:00 +1°C° 0.3 mm 5 m/S 749 mmHg 78%
    21:00 +1°C° 0.3 mm 4 m/S 749 mmHg 79%
    22:00 +1°C° 0 mm 4 m/S 750 mmHg 80%
    23:00 +1°C° 0 mm 4 m/S 750 mmHg 81%

    21 November, Mittwoch

    Zeit Temperatur Niederschläge Wind Luftdruck Luftfeuchtigkeit
    00:00 0°C° 0 mm 4 m/S 750 mmHg 81%
    01:00 0°C° 0 mm 4 m/S 750 mmHg 83%
    02:00 0°C° 0 mm 4 m/S 750 mmHg 84%
    03:00 0°C° 0 mm 4 m/S 750 mmHg 85%
    04:00 0°C° 0 mm 4 m/S 751 mmHg 86%
    05:00 0°C° 0 mm 3 m/S 751 mmHg 87%
    06:00 0°C° 0 mm 3 m/S 751 mmHg 88%
    07:00 +1°C° 0 mm 3 m/S 752 mmHg 85%
    08:00 +2°C° 0 mm 3 m/S 752 mmHg 83%
    09:00 +2°C° 0 mm 3 m/S 753 mmHg 80%
    10:00 +3°C° 0 mm 3 m/S 753 mmHg 77%
    11:00 +4°C° 0 mm 3 m/S 753 mmHg 74%
    12:00 +6°C° 0 mm 2 m/S 754 mmHg 71%
    13:00 +5°C° 0 mm 3 m/S 754 mmHg 74%
    14:00 +4°C° 0 mm 3 m/S 754 mmHg 76%
    15:00 +4°C° 0 mm 3 m/S 754 mmHg 79%
    16:00 +3°C° 0 mm 3 m/S 755 mmHg 81%
    17:00 +3°C° 0 mm 3 m/S 755 mmHg 83%
    18:00 +2°C° 0 mm 3 m/S 755 mmHg 85%
    19:00 +2°C° 0 mm 3 m/S 755 mmHg 86%
    20:00 +3°C° 0 mm 2 m/S 756 mmHg 86%
    21:00 +3°C° 0 mm 2 m/S 756 mmHg 87%
    22:00 +3°C° 0 mm 2 m/S 756 mmHg 87%
    23:00 +3°C° 0 mm 2 m/S 756 mmHg 87%

    22 November, Donnerstag

    Zeit Temperatur Niederschläge Wind Luftdruck Luftfeuchtigkeit
    00:00 +2°C° 0 mm 2 m/S 756 mmHg 87%
    01:00 +2°C° 0 mm 2 m/S 756 mmHg 88%
    02:00 +2°C° 0 mm 2 m/S 756 mmHg 88%
    03:00 +2°C° 0 mm 2 m/S 756 mmHg 88%
    04:00 +2°C° 0 mm 2 m/S 756 mmHg 89%
    05:00 +2°C° 0 mm 2 m/S 756 mmHg 89%
    06:00 +2°C° 0 mm 2 m/S 756 mmHg 89%
    07:00 +3°C° 0 mm 2 m/S 756 mmHg 87%
    08:00 +3°C° 0 mm 2 m/S 756 mmHg 85%
    09:00 +3°C° 0 mm 3 m/S 756 mmHg 83%
    10:00 +5°C° 0 mm 2 m/S 756 mmHg 80%
    11:00 +5°C° 0 mm 2 m/S 756 mmHg 78%
    12:00 +6°C° 0 mm 2 m/S 756 mmHg 76%
    13:00 +6°C° 0 mm 2 m/S 756 mmHg 78%
    14:00 +6°C° 0 mm 2 m/S 756 mmHg 79%
    15:00 +6°C° 0 mm 2 m/S 756 mmHg 81%
    16:00 +5°C° 0 mm 2 m/S 757 mmHg 83%
    17:00 +5°C° 0 mm 2 m/S 757 mmHg 84%
    18:00 +5°C° 0 mm 2 m/S 757 mmHg 85%
    19:00 +4°C° 0 mm 2 m/S 757 mmHg 87%
    20:00 +4°C° 0 mm 2 m/S 757 mmHg 88%
    21:00 +4°C° 0 mm 2 m/S 758 mmHg 89%
    22:00 +4°C° 0 mm 2 m/S 758 mmHg 90%
    23:00 +3°C° 0 mm 2 m/S 758 mmHg 90%

    23 November, Freitag

    Zeit Temperatur Niederschläge Wind Luftdruck Luftfeuchtigkeit
    00:00 +3°C° 0 mm 2 m/S 758 mmHg 91%
    01:00 +3°C° 0 mm 2 m/S 758 mmHg 91%
    02:00 +3°C° 0 mm 2 m/S 757 mmHg 91%
    03:00 +3°C° 0 mm 1 m/S 757 mmHg 91%
    04:00 +2°C° 0 mm 2 m/S 757 mmHg 91%
    05:00 +2°C° 0 mm 2 m/S 757 mmHg 91%
    06:00 +2°C° 0 mm 2 m/S 758 mmHg 91%
    07:00 +3°C° 0 mm 2 m/S 758 mmHg 88%
    08:00 +4°C° 0 mm 2 m/S 758 mmHg 85%
    09:00 +4°C° 0 mm 2 m/S 758 mmHg 82%
    10:00 +5°C° 0 mm 2 m/S 758 mmHg 79%
    11:00 +7°C° 0 mm 1 m/S 758 mmHg 76%
    12:00 +8°C° 0 mm 1 m/S 757 mmHg 73%
    13:00 +8°C° 0 mm 1 m/S 757 mmHg 76%
    14:00 +7°C° 0 mm 1 m/S 757 mmHg 79%
    15:00 +7°C° 0 mm 1 m/S 757 mmHg 82%
    16:00 +6°C° 0 mm 1 m/S 757 mmHg 84%
    17:00 +6°C° 0 mm 1 m/S 757 mmHg 86%
    18:00 +5°C° 0 mm 1 m/S 757 mmHg 88%
    19:00 +5°C° 0 mm 1 m/S 758 mmHg 88%
    20:00 +5°C° 0 mm 1 m/S 758 mmHg 89%
    21:00 +4°C° 0 mm 1 m/S 758 mmHg 89%
    22:00 +4°C° 0 mm 1 m/S 758 mmHg 89%
    23:00 +4°C° 0 mm 1 m/S 758 mmHg 90%
    Mehr zeigen